Muncie, IN

12:43 PM EST on February 21, 2017 (GMT -0500)
Delaware County-Johnson

Weather History for KMIE - January, 2015

Change the Weather History Date:

Saturday, January 17, 2015

  Actual Average Record
Temperature  
Mean Temperature 38 °F 26 °F  
Max Temperature 48 °F 34 °F 59 °F (1990)
Min Temperature 28 °F 19 °F -22 °F (1977)
Degree Days  
Heating Degree Days 27 39  
Month to date heating degree days 759 654  
Since 1 July heating degree days 3071 2852  
Cooling Degree Days 0 0  
Month to date cooling degree days 0 0  
Year to date cooling degree days 0 0  
Moisture  
Dew Point 29 °F    
Average Humidity 71    
Maximum Humidity 85    
Minimum Humidity 56    
Precipitation  
Precipitation 0.00 in 0.07 in 0.85 in (2012)
Month to date precipitation 1.64 1.23  
Year to date precipitation 1.64 1.23  
Sea Level Pressure  
Sea Level Pressure 29.90 in    
Wind  
Wind Speed 13 mph (SSW)    
Max Wind Speed 22 mph    
Max Gust Speed 31 mph    
Visibility 9 miles    
Events      
T = Trace of Precipitation, MM = Missing Value Source: NWS Daily Summary

Daily Weather History Graph

Daily Weather History Graph

Search for Another Location

Airport or City:

Trip Planner

Search our weather history database for the weather conditions in past years. The results will help you decide how hot, cold, wet, or windy it might be!

Date:

Astronomy

Jan. 17, 2015 Rise Set
Actual Time 8:01 AM EST 5:42 PM EST
Civil Twilight 7:31 AM EST 6:11 PM EST
Nautical Twilight 6:58 AM EST 6:45 PM EST
Astronomical Twilight 6:25 AM EST 7:17 PM EST
Moon 4:57 AM EST (1/17) 3:07 PM EST (1/17)
Length of Visible Light 10h 40m
Length of Day
9h 40m
Waning Crescent, 11% of the Moon is Illuminated
Jan 17
Waning Crescent
Jan 20
New
Jan 26
First Quarter
Feb 3
Full
Feb 11
Last Quarter

Hourly Weather History & Observations

Time (EST) Temp. Windchill Dew Point Humidity Pressure Visibility Wind Dir Wind Speed Gust Speed Precip Events Conditions
12:53 AM 28.9 °F 22.8 °F 25.0 °F 85% 30.14 in 6.0 mi SSE 5.8 mph - N/A   Clear
1:53 AM 30.0 °F 24.1 °F 25.0 °F 82% 30.11 in 6.0 mi South 5.8 mph - N/A   Haze
2:53 AM 30.9 °F 22.8 °F 26.1 °F 82% 30.09 in 6.0 mi South 9.2 mph - N/A   Haze
3:53 AM 32.0 °F 23.6 °F 27.0 °F 82% 30.07 in 6.0 mi South 10.4 mph - N/A   Haze
4:53 AM 32.0 °F 24.2 °F 27.0 °F 82% 30.05 in 7.0 mi South 9.2 mph - N/A   Clear
5:53 AM 32.0 °F 24.2 °F 27.0 °F 82% 30.03 in 6.0 mi South 9.2 mph - N/A   Haze
6:53 AM 33.1 °F 24.4 °F 28.0 °F 82% 30.02 in 7.0 mi South 11.5 mph - N/A   Clear
7:53 AM 34.0 °F 24.6 °F 28.0 °F 79% 30.00 in 7.0 mi South 13.8 mph - N/A   Clear
8:53 AM 36.0 °F 25.6 °F 28.0 °F 73% 29.96 in 7.0 mi South 18.4 mph 23.0 mph N/A   Clear
9:53 AM 37.9 °F 29.2 °F 28.9 °F 70% 29.96 in 9.0 mi SSW 15.0 mph 24.2 mph N/A   Clear
10:53 AM 41.0 °F 33.1 °F 28.9 °F 62% 29.96 in 10.0 mi SSW 15.0 mph 25.3 mph N/A   Clear
11:53 AM 42.1 °F 33.9 °F 30.0 °F 62% 29.93 in 10.0 mi SSW 17.3 mph 27.6 mph N/A   Clear
12:53 PM 44.1 °F 38.1 °F 30.9 °F 60% 29.88 in 10.0 mi SSW 11.5 mph 23.0 mph N/A   Clear
1:53 PM 44.1 °F 36.5 °F 32.0 °F 63% 29.82 in 10.0 mi South 17.3 mph 28.8 mph N/A   Clear
2:53 PM 46.0 °F 39.6 °F 33.1 °F 61% 29.80 in 10.0 mi SSW 15.0 mph 29.9 mph N/A   Clear
3:53 PM 46.9 °F - 33.1 °F 59% 29.75 in 10.0 mi SSW 18.4 mph 26.5 mph N/A   Clear
4:53 PM 48.0 °F - 33.1 °F 56% 29.74 in 10.0 mi SSW 15.0 mph 27.6 mph N/A   Clear
5:53 PM 45.0 °F 37.4 °F 32.0 °F 60% 29.74 in 10.0 mi South 18.4 mph 27.6 mph N/A   Clear
6:53 PM 44.1 °F 37.1 °F 30.9 °F 60% 29.77 in 10.0 mi SSW 15.0 mph 21.9 mph N/A   Clear
7:53 PM 43.0 °F 36.4 °F 30.0 °F 60% 29.76 in 10.0 mi SSW 12.7 mph - N/A   Clear
8:53 PM 44.1 °F 37.4 °F 30.0 °F 58% 29.75 in 10.0 mi SSW 13.8 mph 24.2 mph N/A   Overcast
9:53 PM 44.1 °F 37.1 °F 30.0 °F 58% 29.75 in 10.0 mi SSW 15.0 mph 21.9 mph N/A   Overcast
10:53 PM 44.1 °F 37.7 °F 30.0 °F 58% 29.75 in 10.0 mi SW 12.7 mph 19.6 mph N/A   Overcast
11:53 PM 43.0 °F 35.1 °F 33.1 °F 68% 29.76 in 10.0 mi West 17.3 mph - N/A   Overcast